Home   Weather   Tabatinga   Past weeks

Flag for Brazil Past Weather in Tabatinga, Amazonas, Brazil — Yesterday and Last 2 Weeks

73 °F


Feels Like: 70 °F
Forecast: 74 / 92 °F
Wind: No wind

Location: Leticia / Vasquez Cobo

Current Time: Oct 26, 2016 at 6:19:34 AM

Latest Report: Oct 26, 2016 at 6:00 AM

Visibility: 10 mi

Pressure: 29.78 "Hg

Humidity: 94%

Dew Point: 72 °F

Location of TabatingaLocation

Past Weather in Tabatinga — Graph


Tabatinga Temperature Yesterday

Maximum temperature yesterday: 84 °F (at 2:00 PM)
Minimum temperature yesterday: 75 °F (at 8:00 AM)
Average temperature yesterday: 79 °F

High & Low Weather Summary for the Past Weeks

High97 °F (Oct 18, 3:00 PM)100% (Oct 11, 6:00 AM)29.96 "Hg (Oct 11, 6:00 AM)
Low72 °F (Oct 14, 6:00 AM)53% (Oct 18, 12:00 PM)29.67 "Hg (Oct 21, 4:00 PM)
Average81 °F86%29.82 "Hg
* Reported Oct 11 5:00 AM — Oct 26 5:00 AM, Tabatinga, Weather by CustomWeather, © 2016

Note: Actual official high and low records may vary slightly from our data, if they occured in-between our weather recording intervals... More about our weather records


Tabatinga Weather History for the Previous 24 Hours

Scroll right to see more
Time TempWeatherWind HumidityBarometerVisibility
5:00 AM
Wed, Oct 26
73 °FClear.No wind94%29.77 "Hg10 mi
4:00 AM73 °FClear.No wind94%29.75 "Hg10 mi
3:00 AM75 °FClear.No wind94%29.94 "Hg10 mi
1:00 AM75 °FClear.No wind94%29.77 "Hg10 mi
12:00 AM77 °FClear.No wind94%29.80 "Hg10 mi
11:00 PM
Tue, Oct 25
77 °FClear.No wind94%29.81 "Hg10 mi
10:00 PM77 °FClear.No wind94%29.81 "Hg10 mi
9:00 PM77 °FClear.No wind94%29.78 "Hg10 mi
8:00 PM77 °FClear.No wind94%29.77 "Hg10 mi
7:00 PM79 °FClear.No wind94%29.72 "Hg10 mi
6:00 PM81 °FPassing clouds.No wind89%29.68 "HgN/A
5:00 PM81 °FScattered clouds.No wind89%29.67 "HgN/A
4:00 PM84 °FScattered clouds.2 mph74%29.67 "HgN/A
3:00 PM84 °FPartly sunny.2 mph79%29.69 "HgN/A
2:00 PM84 °FPartly sunny.No wind74%29.73 "HgN/A
1:00 PM82 °FPartly sunny.No wind89%29.78 "HgN/A
12:00 PM81 °FBroken clouds.No wind84%29.83 "HgN/A
11:00 AM77 °FMore clouds than sun.3 mph89%29.87 "HgN/A
10:00 AM75 °FMore clouds than sun.3 mph94%29.89 "HgN/A
9:00 AM75 °FScattered showers. More clouds than sun.5 mph94%29.89 "Hg4 mi
8:00 AM75 °FDrizzle. Partly sunny.5 mph100%29.88 "Hg1 mi
7:00 AM77 °FScattered showers. Partly sunny.No wind94%29.84 "Hg5 mi
6:00 AM77 °FScattered showers. Broken clouds.No wind94%29.82 "Hg5 mi
Weather by CustomWeather, © 2016

See weather overviewHow to use our weather pages